TimeCDT,TemperatureF,Dew PointF,Humidity,Sea Level PressureIn,VisibilityMPH,Wind Direction,Wind SpeedMPH,Gust SpeedMPH,PrecipitationIn,Events,Conditions,WindDirDegrees,DateUTC
12:15 AM,64.9,61.7,89,29.71,10.0,SSW,6.9,-,N/A,,Clear,210,2012-10-14 05:15:00
12:35 AM,63.7,60.4,89,29.71,10.0,SW,6.9,-,N/A,,Clear,220,2012-10-14 05:35:00
12:55 AM,63.7,61.0,91,29.71,10.0,South,8.1,-,N/A,,Clear,180,2012-10-14 05:55:00
1:15 AM,64.2,61.2,90,29.70,10.0,South,10.4,-,N/A,,Scattered Clouds,180,2012-10-14 06:15:00
1:35 AM,63.9,61.2,91,29.70,10.0,SSE,10.4,-,N/A,,Drizzle,150,2012-10-14 06:35:00
1:55 AM,64.0,61.3,91,29.69,10.0,South,5.8,-,N/A,,Light Drizzle,190,2012-10-14 06:55:00
2:15 AM,63.7,61.2,91,29.68,10.0,South,4.6,-,N/A,,Drizzle,180,2012-10-14 07:15:00
2:35 AM,63.5,61.2,92,29.67,7.0,South,4.6,-,0.01,Rain,Light Rain,170,2012-10-14 07:35:00
2:55 AM,63.5,61.7,94,29.66,7.0,SE,8.1,-,0.01,,Drizzle,140,2012-10-14 07:55:00
3:15 AM,63.5,61.7,94,29.65,10.0,South,8.1,-,N/A,Rain,Rain,170,2012-10-14 08:15:00
3:35 AM,63.3,61.7,94,29.64,7.0,SE,4.6,-,0.02,Rain,Light Rain,140,2012-10-14 08:35:00
3:55 AM,62.8,61.5,96,29.62,5.0,ESE,4.6,-,0.04,Rain,Light Rain,110,2012-10-14 08:55:00
4:15 AM,63.1,61.9,96,29.60,5.0,Calm,Calm,-,0.01,,Light Drizzle,0,2012-10-14 09:15:00
4:35 AM,63.0,61.7,96,29.59,7.0,East,3.5,-,0.01,,Overcast,100,2012-10-14 09:35:00
4:55 AM,62.8,61.5,96,29.58,5.0,Calm,Calm,-,0.01,,Overcast,0,2012-10-14 09:55:00
5:15 AM,62.6,61.2,95,29.58,4.0,Calm,Calm,-,0.01,Rain,Rain,0,2012-10-14 10:15:00
5:35 AM,62.2,61.2,96,29.57,1.5,Calm,Calm,-,0.03,,Heavy Drizzle,0,2012-10-14 10:35:00
5:55 AM,62.2,61.2,96,29.56,0.8,Calm,Calm,-,0.04,,Drizzle,0,2012-10-14 10:55:00
6:15 AM,62.1,61.0,96,29.55,1.0,Calm,Calm,-,0.01,,Drizzle,0,2012-10-14 11:15:00
6:35 AM,61.7,60.8,97,29.55,0.5,Calm,Calm,-,0.01,Rain,Rain,0,2012-10-14 11:35:00
6:55 AM,61.9,61.0,97,29.55,0.8,Calm,Calm,-,0.02,Rain,Rain,0,2012-10-14 11:55:00
7:15 AM,61.7,60.8,97,29.55,1.2,SW,4.6,-,0.01,Rain,Light Rain,220,2012-10-14 12:15:00
7:35 AM,61.3,60.4,97,29.54,1.2,SSW,6.9,-,0.02,,Drizzle,200,2012-10-14 12:35:00
7:55 AM,61.7,60.8,97,29.54,2.5,SSW,6.9,-,0.02,,Overcast,200,2012-10-14 12:55:00
8:15 AM,61.9,61.0,97,29.54,7.0,South,6.9,-,0.01,Rain,Light Rain,190,2012-10-14 13:15:00
8:35 AM,61.9,61.0,97,29.54,4.0,South,9.2,-,0.01,Rain,Rain,190,2012-10-14 13:35:00
8:55 AM,61.9,61.0,97,29.52,10.0,South,8.1,-,0.02,,Overcast,170,2012-10-14 13:55:00
9:15 AM,61.9,60.8,96,29.51,3.0,South,10.4,-,0.07,Rain,Heavy Rain,170,2012-10-14 14:15:00
9:35 AM,62.2,61.0,96,29.50,10.0,SSE,10.4,-,0.09,Rain,Light Rain,160,2012-10-14 14:35:00
9:55 AM,62.6,61.0,94,29.50,10.0,South,13.8,-,0.10,Rain,Light Rain,170,2012-10-14 14:55:00
10:15 AM,62.6,60.8,94,29.50,4.0,South,12.7,-,0.07,Rain,Heavy Rain,180,2012-10-14 15:15:00
10:35 AM,61.7,60.3,95,29.50,5.0,SSW,11.5,-,0.12,Rain,Rain,200,2012-10-14 15:35:00
10:55 AM,61.7,60.1,94,29.47,10.0,SSE,6.9,-,0.14,Rain,Rain,160,2012-10-14 15:55:00
11:15 AM,63.0,61.2,94,29.48,10.0,South,13.8,-,N/A,,Light Drizzle,180,2012-10-14 16:15:00
11:35 AM,63.7,60.6,90,29.48,10.0,SSW,11.5,-,N/A,,Overcast,200,2012-10-14 16:35:00
11:55 AM,63.9,60.6,89,29.48,10.0,South,10.4,-,N/A,,Mostly Cloudy,190,2012-10-14 16:55:00
12:15 PM,63.9,59.9,87,29.46,10.0,South,6.9,-,N/A,,Mostly Cloudy,170,2012-10-14 17:15:00
12:35 PM,64.4,59.7,85,29.45,10.0,South,3.5,-,N/A,,Overcast,170,2012-10-14 17:35:00
12:55 PM,65.7,59.4,80,29.45,10.0,South,9.2,-,N/A,,Scattered Clouds,180,2012-10-14 17:55:00
1:15 PM,66.0,59.0,78,29.45,10.0,SSW,10.4,-,N/A,,Scattered Clouds,210,2012-10-14 18:15:00
1:35 PM,65.7,58.8,79,29.43,10.0,SSW,6.9,-,N/A,,Scattered Clouds,200,2012-10-14 18:35:00
1:55 PM,57.9,53.6,86,29.47,7.0,NNW,19.6,25.3,0.01,Rain,Rain,330,2012-10-14 18:55:00
2:15 PM,54.7,52.0,91,29.49,4.0,NNW,18.4,29.9,0.05,Rain,Rain,340,2012-10-14 19:15:00
2:35 PM,54.1,51.8,92,29.51,10.0,NW,13.8,20.7,0.06,Rain,Light Rain,320,2012-10-14 19:35:00
3:15 PM,53.1,49.8,89,29.55,10.0,NW,20.7,27.6,N/A,,Light Drizzle,320,2012-10-14 20:15:00
3:35 PM,52.9,50.0,90,29.58,10.0,NW,16.1,24.2,N/A,Rain,Light Rain,310,2012-10-14 20:35:00
3:55 PM,52.3,49.5,90,29.61,10.0,NW,16.1,25.3,N/A,Rain,Rain,310,2012-10-14 20:55:00
4:15 PM,52.9,49.8,89,29.63,10.0,WNW,17.3,20.7,N/A,,Overcast,300,2012-10-14 21:15:00
4:35 PM,52.7,48.4,85,29.65,10.0,NW,19.6,31.1,N/A,,Overcast,310,2012-10-14 21:35:00
4:55 PM,52.2,47.8,85,29.68,10.0,NW,19.6,24.2,N/A,,Overcast,310,2012-10-14 21:55:00
5:15 PM,52.2,46.9,82,29.69,10.0,NW,16.1,24.2,N/A,,Overcast,310,2012-10-14 22:15:00
5:35 PM,51.4,47.1,85,29.71,10.0,NW,18.4,26.5,N/A,,Overcast,310,2012-10-14 22:35:00
5:55 PM,51.8,47.3,85,29.73,10.0,WNW,10.4,19.6,N/A,,Overcast,300,2012-10-14 22:55:00
6:15 PM,52.0,47.3,84,29.74,10.0,WNW,10.4,17.3,N/A,,Overcast,290,2012-10-14 23:15:00
6:35 PM,51.8,47.5,85,29.75,10.0,West,18.4,25.3,N/A,,Overcast,280,2012-10-14 23:35:00
6:55 PM,51.3,46.8,85,29.76,10.0,WNW,16.1,24.2,N/A,,Overcast,290,2012-10-14 23:55:00
7:15 PM,50.9,46.6,85,29.77,10.0,WNW,12.7,24.2,N/A,,Overcast,290,2012-10-15 00:15:00
7:35 PM,50.9,46.4,85,29.77,10.0,WNW,16.1,20.7,N/A,,Overcast,290,2012-10-15 00:35:00
7:55 PM,50.0,46.0,86,29.79,7.0,WNW,13.8,23.0,N/A,,Overcast,300,2012-10-15 00:55:00
8:15 PM,49.6,45.5,86,29.79,10.0,WNW,11.5,18.4,N/A,,Overcast,300,2012-10-15 01:15:00
8:35 PM,50.0,43.7,79,29.81,10.0,WNW,15.0,24.2,N/A,,Overcast,300,2012-10-15 01:35:00
8:55 PM,49.5,43.3,79,29.81,10.0,NW,16.1,19.6,N/A,,Overcast,320,2012-10-15 01:55:00
9:15 PM,49.5,43.2,79,29.82,10.0,NW,9.2,-,N/A,,Overcast,310,2012-10-15 02:15:00
9:35 PM,48.7,42.3,78,29.83,10.0,NW,10.4,-,N/A,,Mostly Cloudy,320,2012-10-15 02:35:00
9:55 PM,47.8,41.9,80,29.83,10.0,WNW,9.2,-,N/A,,Scattered Clouds,300,2012-10-15 02:55:00
10:15 PM,48.0,41.9,79,29.83,10.0,WNW,8.1,-,N/A,,Clear,290,2012-10-15 03:15:00
10:35 PM,47.7,41.5,79,29.83,10.0,West,8.1,-,N/A,,Clear,280,2012-10-15 03:35:00
10:55 PM,47.5,41.9,81,29.84,10.0,West,5.8,-,N/A,,Clear,270,2012-10-15 03:55:00
11:15 PM,47.3,41.9,82,29.85,10.0,West,8.1,-,N/A,,Clear,270,2012-10-15 04:15:00
11:35 PM,46.6,41.9,84,29.85,10.0,West,6.9,-,N/A,,Clear,260,2012-10-15 04:35:00